BOX524 EDDP-LIMC

Flight info

Callsign BOX524
Flight time 1h 10m
Altitude 32000
Route NEVKO1K NEVKO Q243 BAMKI Z94 KOMIB DCT TEDGO DCT SONOM/N0480F330 DCT GERSA DCT SOSON DCT DEGAD Z424 RIXUV
Aircraft B77L/H-SDE1E2E3FGHIJ2J3J4J5M1RWXY/LB1D1

Departure

Time 2026-05-05 10:05
Airport Leipzig/Halle Airport (EDDP)

Arrival

Time 2026-05-05 11:16
Airport Milan Malpensa International Airport (LIMC)
Time Latitude Longitude Altitude Speed Heading
2026-05-05 09:59 51.40958 12.24660 468 ft 9 kts 355°
2026-05-05 09:59 51.41017 12.24653 470 ft 8 kts 355°
2026-05-05 10:00 51.41074 12.24656 474 ft 8 kts 19°
2026-05-05 10:00 51.41101 12.24735 471 ft 8 kts 81°
2026-05-05 10:00 51.41106 12.24828 474 ft 8 kts 85°
2026-05-05 10:00 51.41112 12.24956 476 ft 17 kts 86°
2026-05-05 10:01 51.41120 12.25121 471 ft 10 kts 85°
2026-05-05 10:01 51.41125 12.25234 476 ft 10 kts 86°
2026-05-05 10:01 51.41130 12.25347 477 ft 10 kts 86°
2026-05-05 10:01 51.41135 12.25459 474 ft 10 kts 86°
2026-05-05 10:02 51.41145 12.25571 478 ft 10 kts 71°
2026-05-05 10:02 51.41200 12.25626 477 ft 10 kts
2026-05-05 10:02 51.41259 12.25618 482 ft 7 kts 354°
2026-05-05 10:02 51.41303 12.25611 481 ft 6 kts 355°
2026-05-05 10:03 51.41346 12.25596 478 ft 6 kts 339°
2026-05-05 10:03 51.41381 12.25547 476 ft 7 kts 299°
2026-05-05 10:03 51.41393 12.25469 479 ft 8 kts 277°
2026-05-05 10:03 51.41393 12.25409 479 ft 0 kts 266°
2026-05-05 10:04 51.41390 12.25334 474 ft 25 kts 266°
2026-05-05 10:04 51.41358 12.24648 477 ft 96 kts 265°
2026-05-05 10:05 51.41292 12.23245 469 ft 155 kts 265°
2026-05-05 10:05 51.41203 12.21294 563 ft 188 kts 266°
2026-05-05 10:05 51.41088 12.19156 1013 ft 195 kts 265°
2026-05-05 10:05 51.41005 12.16993 1687 ft 193 kts 270°
2026-05-05 10:06 51.41002 12.14864 2260 ft 199 kts 266°
2026-05-05 10:06 51.40853 12.12520 2583 ft 226 kts 264°
2026-05-05 10:06 51.40691 12.09848 2907 ft 254 kts 264°
2026-05-05 10:06 51.40529 12.06949 3605 ft 264 kts 265°
2026-05-05 10:07 51.40370 12.04032 4710 ft 261 kts 265°
2026-05-05 10:07 51.40213 12.01126 5695 ft 263 kts 264°
2026-05-05 10:07 51.40057 11.98203 6528 ft 265 kts 264°
2026-05-05 10:07 51.39817 11.95268 6954 ft 268 kts 252°
2026-05-05 10:08 51.38912 11.92667 6964 ft 270 kts 227°
2026-05-05 10:08 51.37420 11.90895 7326 ft 265 kts 210°
2026-05-05 10:08 51.35796 11.89440 8158 ft 270 kts 211°
2026-05-05 10:08 51.34163 11.87932 9090 ft 271 kts 211°
2026-05-05 10:09 51.32526 11.86419 9747 ft 274 kts 211°
2026-05-05 10:09 51.30864 11.84883 9886 ft 278 kts 211°
2026-05-05 10:09 51.29192 11.83340 9954 ft 289 kts 211°
2026-05-05 10:09 51.27370 11.81657 10193 ft 316 kts 211°
2026-05-05 10:10 51.25390 11.79822 10411 ft 343 kts 212°
2026-05-05 10:10 51.23381 11.77613 11019 ft 355 kts 218°
2026-05-05 10:10 51.21416 11.75140 11823 ft 362 kts 219°
2026-05-05 10:10 51.19451 11.72597 12752 ft 366 kts 219°
2026-05-05 10:11 51.17467 11.70036 13668 ft 369 kts 219°
2026-05-05 10:11 51.15451 11.67459 14473 ft 373 kts 219°
2026-05-05 10:11 51.13409 11.64878 15311 ft 376 kts 219°
2026-05-05 10:11 51.11372 11.62321 16128 ft 379 kts 219°
2026-05-05 10:12 51.09289 11.59721 16926 ft 382 kts 219°
2026-05-05 10:12 51.07160 11.57072 17733 ft 386 kts 219°
2026-05-05 10:12 51.05059 11.54463 18450 ft 390 kts 219°
2026-05-05 10:12 51.02906 11.51795 19099 ft 394 kts 219°
2026-05-05 10:13 51.00731 11.49102 19717 ft 399 kts 219°
2026-05-05 10:13 50.98530 11.46380 20289 ft 405 kts 218°
2026-05-05 10:13 50.96295 11.43620 20885 ft 409 kts 218°
2026-05-05 10:13 50.94035 11.40832 21520 ft 413 kts 219°
2026-05-05 10:14 50.91754 11.38021 22153 ft 417 kts 219°
2026-05-05 10:14 50.89448 11.35182 22775 ft 422 kts 219°
2026-05-05 10:14 50.87118 11.32320 23331 ft 427 kts 219°
2026-05-05 10:14 50.84876 11.29218 23822 ft 430 kts 228°
2026-05-05 10:15 50.83626 11.26777 24179 ft 431 kts 234°
2026-05-05 10:15 50.81879 11.22921 24803 ft 431 kts 234°
2026-05-05 10:15 50.80088 11.19034 25404 ft 433 kts 233°
2026-05-05 10:15 50.78293 11.15260 25817 ft 438 kts 232°
2026-05-05 10:16 50.76421 11.11419 26275 ft 442 kts 232°
2026-05-05 10:16 50.74532 11.07574 26813 ft 444 kts 231°
2026-05-05 10:16 50.72504 11.03904 27376 ft 445 kts 225°
2026-05-05 10:16 50.70247 11.00547 27913 ft 446 kts 221°
2026-05-05 10:17 50.67811 10.97489 28406 ft 449 kts 216°
2026-05-05 10:17 50.65229 10.94689 28870 ft 452 kts 215°
2026-05-05 10:17 50.62632 10.91890 29310 ft 454 kts 215°
2026-05-05 10:17 50.60025 10.89062 29789 ft 455 kts 215°
2026-05-05 10:18 50.57428 10.86225 30356 ft 452 kts 216°
2026-05-05 10:18 50.54862 10.83415 30917 ft 448 kts 216°
2026-05-05 10:18 50.52306 10.80620 31492 ft 445 kts 216°
2026-05-05 10:18 50.49763 10.77863 31911 ft 446 kts 216°
2026-05-05 10:19 50.44602 10.72292 31869 ft 449 kts 216°
2026-05-05 10:19 50.39535 10.66803 31881 ft 443 kts 216°
2026-05-05 10:20 50.34463 10.61295 31867 ft 444 kts 216°
2026-05-05 10:20 50.29366 10.55829 31866 ft 444 kts 216°
2026-05-05 10:21 50.24258 10.50362 31865 ft 445 kts 217°
2026-05-05 10:21 50.19589 10.44045 31862 ft 444 kts 227°
2026-05-05 10:22 50.15318 10.37069 31854 ft 445 kts 226°
2026-05-05 10:22 50.10990 10.30172 31856 ft 445 kts 225°
2026-05-05 10:23 50.06146 10.24186 31861 ft 446 kts 214°
2026-05-05 10:23 50.00676 10.19566 31856 ft 448 kts 206°
2026-05-05 10:24 49.94972 10.15652 31844 ft 448 kts 205°
2026-05-05 10:24 49.89271 10.11756 31848 ft 448 kts 205°
2026-05-05 10:25 49.83580 10.07839 31850 ft 447 kts 205°
2026-05-05 10:25 49.77928 10.03940 31852 ft 447 kts 205°
2026-05-05 10:26 49.72246 10.00025 31844 ft 447 kts 205°
2026-05-05 10:26 49.66555 9.96116 31864 ft 447 kts 205°
2026-05-05 10:27 49.60868 9.92218 31871 ft 448 kts 205°
2026-05-05 10:27 49.55161 9.88319 31861 ft 448 kts 205°
2026-05-05 10:28 49.49480 9.84448 31854 ft 447 kts 205°
2026-05-05 10:28 49.43784 9.80575 31855 ft 446 kts 205°
2026-05-05 10:29 49.38142 9.76749 31853 ft 446 kts 205°
2026-05-05 10:29 49.32469 9.72911 31857 ft 445 kts 204°
2026-05-05 10:30 49.26811 9.69092 31842 ft 444 kts 204°
2026-05-05 10:30 49.21164 9.65294 31854 ft 443 kts 204°
2026-05-05 10:31 49.15514 9.61502 31857 ft 443 kts 204°
2026-05-05 10:31 49.09886 9.57732 31852 ft 442 kts 204°
2026-05-05 10:32 49.04247 9.53965 31852 ft 442 kts 204°
2026-05-05 10:32 48.98606 9.50205 31850 ft 442 kts 204°
2026-05-05 10:33 48.92970 9.46458 31846 ft 442 kts 204°
2026-05-05 10:33 48.87365 9.42745 31864 ft 442 kts 203°
2026-05-05 10:34 48.81736 9.39019 31864 ft 442 kts 203°
2026-05-05 10:34 48.76099 9.35297 31855 ft 441 kts 203°
2026-05-05 10:35 48.70466 9.31589 31854 ft 441 kts 203°
2026-05-05 10:35 48.64840 9.27894 31851 ft 441 kts 203°
2026-05-05 10:36 48.59108 9.24619 31853 ft 441 kts 196°
2026-05-05 10:36 48.53202 9.22085 31848 ft 441 kts 196°
2026-05-05 10:37 48.47303 9.19509 31897 ft 444 kts 197°
2026-05-05 10:37 48.44359 9.18216 32226 ft 445 kts 197°
2026-05-05 10:37 48.41408 9.16919 32826 ft 440 kts 197°
2026-05-05 10:38 48.35551 9.14349 32845 ft 438 kts 197°
2026-05-05 10:38 48.29706 9.11791 32850 ft 438 kts 197°
2026-05-05 10:39 48.23850 9.09235 32857 ft 439 kts 196°
2026-05-05 10:39 48.17970 9.06675 32865 ft 440 kts 196°
2026-05-05 10:40 48.12081 9.04117 32863 ft 441 kts 196°
2026-05-05 10:40 48.06184 9.01561 32854 ft 441 kts 196°
2026-05-05 10:41 48.00293 8.99014 32867 ft 440 kts 196°
2026-05-05 10:41 47.94412 8.96479 32869 ft 439 kts 196°
2026-05-05 10:42 47.85647 8.92707 32868 ft 438 kts 195°
2026-05-05 10:43 47.79782 8.90193 32877 ft 438 kts 195°
2026-05-05 10:43 47.73957 8.87532 32882 ft 438 kts 198°
2026-05-05 10:44 47.68172 8.84614 32892 ft 439 kts 198°
2026-05-05 10:44 47.62387 8.81700 32899 ft 440 kts 197°
2026-05-05 10:45 47.56573 8.78825 32887 ft 441 kts 197°
2026-05-05 10:45 47.50750 8.75966 32895 ft 441 kts 197°
2026-05-05 10:46 47.44914 8.73110 32891 ft 442 kts 197°
2026-05-05 10:46 47.39075 8.70256 32891 ft 442 kts 197°
2026-05-05 10:47 47.33226 8.67403 32881 ft 443 kts 197°
2026-05-05 10:47 47.27389 8.64563 32887 ft 443 kts 197°
2026-05-05 10:48 47.21539 8.61724 32890 ft 442 kts 197°
2026-05-05 10:48 47.15742 8.58916 32886 ft 441 kts 197°
2026-05-05 10:49 47.09909 8.56097 32912 ft 441 kts 197°
2026-05-05 10:49 47.03927 8.54164 32894 ft 441 kts 186°
2026-05-05 10:50 46.97791 8.53975 32917 ft 443 kts 176°
2026-05-05 10:50 46.91624 8.54907 32917 ft 446 kts 175°
2026-05-05 10:51 46.85445 8.55851 32929 ft 447 kts 175°
2026-05-05 10:51 46.79228 8.56757 32723 ft 452 kts 175°
2026-05-05 10:51 46.76085 8.57206 31847 ft 461 kts 175°
2026-05-05 10:52 46.72920 8.57657 31273 ft 454 kts 175°
2026-05-05 10:52 46.69789 8.58103 30684 ft 449 kts 174°
2026-05-05 10:52 46.66699 8.58545 30120 ft 444 kts 174°
2026-05-05 10:52 46.63637 8.58985 29486 ft 440 kts 175°
2026-05-05 10:53 46.60600 8.59416 28850 ft 435 kts 175°
2026-05-05 10:53 46.57601 8.59838 28302 ft 430 kts 176°
2026-05-05 10:53 46.54628 8.60256 27720 ft 427 kts 176°
2026-05-05 10:53 46.51685 8.60669 27171 ft 423 kts 176°
2026-05-05 10:54 46.48759 8.61079 26614 ft 420 kts 176°
2026-05-05 10:54 46.45870 8.61146 26051 ft 413 kts 187°
2026-05-05 10:54 46.43110 8.60346 25561 ft 409 kts 196°
2026-05-05 10:54 46.40444 8.58956 25031 ft 406 kts 204°
2026-05-05 10:55 46.38000 8.56920 24510 ft 404 kts 212°
2026-05-05 10:55 46.35656 8.54702 23955 ft 402 kts 211°
2026-05-05 10:55 46.33299 8.52557 23452 ft 399 kts 211°
2026-05-05 10:55 46.30942 8.50453 22840 ft 395 kts 210°
2026-05-05 10:56 46.28462 8.48832 22332 ft 390 kts 197°
2026-05-05 10:56 46.25817 8.47979 21825 ft 388 kts 189°
2026-05-05 10:56 46.23138 8.47719 21323 ft 385 kts 179°
2026-05-05 10:56 46.20480 8.48125 20866 ft 383 kts 175°
2026-05-05 10:57 46.17844 8.48577 20370 ft 380 kts 176°
2026-05-05 10:57 46.15220 8.48983 19911 ft 378 kts 176°
2026-05-05 10:57 46.12615 8.49415 19432 ft 378 kts 173°
2026-05-05 10:57 46.10039 8.50213 18954 ft 377 kts 167°
2026-05-05 10:58 46.07552 8.51390 18511 ft 377 kts 162°
2026-05-05 10:58 46.05091 8.52741 18001 ft 377 kts 162°
2026-05-05 10:58 46.02641 8.54082 17449 ft 376 kts 162°
2026-05-05 10:58 46.00228 8.55394 17014 ft 374 kts 162°
2026-05-05 10:59 45.97793 8.56706 16509 ft 374 kts 162°
2026-05-05 10:59 45.95356 8.58020 16041 ft 373 kts 162°
2026-05-05 10:59 45.92920 8.59330 15548 ft 373 kts 162°
2026-05-05 10:59 45.90492 8.60644 15076 ft 370 kts 160°
2026-05-05 11:00 45.88262 8.62472 14608 ft 372 kts 144°
2026-05-05 11:00 45.86295 8.64863 14180 ft 371 kts 142°
2026-05-05 11:00 45.84321 8.67256 13692 ft 371 kts 143°
2026-05-05 11:00 45.82328 8.69609 13162 ft 370 kts 144°
2026-05-05 11:01 45.80324 8.71931 12702 ft 368 kts 144°
2026-05-05 11:01 45.78351 8.74202 12240 ft 367 kts 144°
2026-05-05 11:01 45.76366 8.76462 12014 ft 359 kts 146°
2026-05-05 11:01 45.74296 8.78343 11823 ft 347 kts 154°
2026-05-05 11:02 45.72185 8.79896 11702 ft 337 kts 156°
2026-05-05 11:02 45.70114 8.81371 11566 ft 328 kts 155°
2026-05-05 11:02 45.68107 8.82843 11426 ft 320 kts 155°
2026-05-05 11:02 45.66169 8.84308 11294 ft 312 kts 154°
2026-05-05 11:03 45.64277 8.85755 11163 ft 303 kts 154°
2026-05-05 11:03 45.62445 8.87159 11031 ft 295 kts 155°
2026-05-05 11:03 45.60582 8.88186 10822 ft 281 kts 169°
2026-05-05 11:03 45.59302 8.88545 10741 ft 276 kts 173°
2026-05-05 11:04 45.56813 8.89120 10444 ft 269 kts 173°
2026-05-05 11:04 45.55568 8.89424 10207 ft 270 kts 172°
2026-05-05 11:04 45.53684 8.89910 9722 ft 277 kts 172°
2026-05-05 11:04 45.51812 8.90407 9550 ft 270 kts 171°
2026-05-05 11:05 45.50011 8.90893 9282 ft 266 kts 171°
2026-05-05 11:05 45.48147 8.91396 8649 ft 275 kts 170°
2026-05-05 11:05 45.46288 8.91903 8442 ft 268 kts 170°
2026-05-05 11:05 45.44485 8.92396 8320 ft 258 kts 170°
2026-05-05 11:06 45.42747 8.92866 8139 ft 253 kts 170°
2026-05-05 11:06 45.41026 8.93335 7821 ft 252 kts 171°
2026-05-05 11:06 45.39310 8.93799 7490 ft 249 kts 171°
2026-05-05 11:06 45.37631 8.94252 7234 ft 244 kts 171°
2026-05-05 11:07 45.35987 8.94698 7075 ft 237 kts 171°
2026-05-05 11:07 45.34378 8.95134 6731 ft 234 kts 171°
2026-05-05 11:07 45.32775 8.95564 6316 ft 233 kts 172°
2026-05-05 11:07 45.31177 8.95519 6031 ft 233 kts 197°
2026-05-05 11:08 45.29733 8.94468 6014 ft 236 kts 220°
2026-05-05 11:08 45.28716 8.92656 5759 ft 237 kts 244°
2026-05-05 11:08 45.28320 8.90405 5416 ft 236 kts 269°
2026-05-05 11:08 45.28627 8.88172 5189 ft 227 kts 296°
2026-05-05 11:09 45.29585 8.86366 5153 ft 233 kts 317°
2026-05-05 11:09 45.30835 8.84915 4878 ft 236 kts 322°
2026-05-05 11:09 45.32119 8.83533 4756 ft 222 kts 323°
2026-05-05 11:09 45.33314 8.82259 4557 ft 212 kts 324°
2026-05-05 11:10 45.34593 8.81373 4409 ft 202 kts 346°
2026-05-05 11:10 45.35975 8.80879 4326 ft 206 kts 347°
2026-05-05 11:10 45.37377 8.80430 4196 ft 206 kts 349°
2026-05-05 11:10 45.38767 8.80028 4096 ft 201 kts 349°
2026-05-05 11:11 45.40137 8.79646 4042 ft 201 kts 350°
2026-05-05 11:11 45.41512 8.79270 4030 ft 202 kts 350°
2026-05-05 11:11 45.42905 8.78885 4043 ft 205 kts 350°
2026-05-05 11:11 45.44301 8.78503 4001 ft 204 kts 351°
2026-05-05 11:12 45.45705 8.78116 3928 ft 210 kts 351°
2026-05-05 11:12 45.47160 8.77719 3664 ft 213 kts 351°
2026-05-05 11:12 45.48614 8.77318 3370 ft 214 kts 351°
2026-05-05 11:12 45.50072 8.76921 3086 ft 212 kts 352°
2026-05-05 11:13 45.51494 8.76528 2786 ft 202 kts 351°
2026-05-05 11:13 45.52821 8.76161 2498 ft 187 kts 351°
2026-05-05 11:13 45.54033 8.75827 2282 ft 168 kts 351°
2026-05-05 11:13 45.55119 8.75527 2063 ft 152 kts 352°
2026-05-05 11:14 45.56155 8.75243 1883 ft 151 kts 352°
2026-05-05 11:14 45.57186 8.74960 1654 ft 152 kts 351°
2026-05-05 11:14 45.58210 8.74676 1455 ft 153 kts 351°
2026-05-05 11:14 45.59253 8.74398 1215 ft 151 kts 349°
2026-05-05 11:15 45.60275 8.74118 1029 ft 150 kts 346°
2026-05-05 11:15 45.61303 8.73820 858 ft 151 kts 349°
2026-05-05 11:15 45.62329 8.73541 746 ft 144 kts 349°
2026-05-05 11:15 45.63127 8.73320 739 ft 84 kts 349°
2026-05-05 11:16 45.63477 8.73225 742 ft 29 kts 349°
2026-05-05 11:16 45.63679 8.73112 742 ft 30 kts 324°
2026-05-05 11:16 45.63809 8.72926 741 ft 22 kts 305°
2026-05-05 11:16 45.63884 8.72769 744 ft 15 kts 305°
2026-05-05 11:17 45.63943 8.72642 741 ft 15 kts 298°
2026-05-05 11:17 45.63947 8.72497 742 ft 14 kts 259°
2026-05-05 11:17 45.63931 8.72373 745 ft 11 kts 259°
2026-05-05 11:17 45.63919 8.72264 743 ft 11 kts 265°
2026-05-05 11:18 45.63914 8.72111 742 ft 21 kts 267°
2026-05-05 11:18 45.63903 8.71945 743 ft 15 kts 259°
2026-05-05 11:18 45.63846 8.71832 742 ft 15 kts 203°
2026-05-05 11:18 45.63745 8.71840 741 ft 15 kts 169°
2026-05-05 11:19 45.63645 8.71868 743 ft 15 kts 169°
2026-05-05 11:19 45.63546 8.71895 743 ft 15 kts 169°
2026-05-05 11:19 45.63446 8.71922 743 ft 15 kts 169°
2026-05-05 11:19 45.63346 8.71949 745 ft 15 kts 169°
2026-05-05 11:20 45.63247 8.71977 743 ft 15 kts 169°
2026-05-05 11:20 45.63148 8.72004 743 ft 15 kts 169°
2026-05-05 11:20 45.63049 8.72032 742 ft 15 kts 169°
2026-05-05 11:20 45.62949 8.72060 742 ft 15 kts 169°
2026-05-05 11:21 45.62850 8.72088 743 ft 15 kts 169°
2026-05-05 11:21 45.62728 8.72121 743 ft 18 kts 169°
2026-05-05 11:21 45.62603 8.72155 744 ft 18 kts 169°
2026-05-05 11:21 45.62480 8.72189 742 ft 18 kts 169°
2026-05-05 11:22 45.62356 8.72223 742 ft 18 kts 169°
2026-05-05 11:22 45.62247 8.72246 744 ft 15 kts 189°
2026-05-05 11:22 45.62198 8.72136 744 ft 12 kts 257°
2026-05-05 11:22 45.62185 8.72045 744 ft 4 kts 258°
2026-05-05 11:23 45.62181 8.72023 742 ft 5 kts 252°
2026-05-05 11:23 45.62155 8.71947 742 ft 8 kts 252°
2026-05-05 11:23 45.62145 8.71881 743 ft 6 kts 259°
2026-05-05 11:23 45.62140 8.71841 743 ft 3 kts 259°
2026-05-05 11:24 45.62137 8.71820 744 ft 0 kts 259°